Location: Mary A Oil Field
(38.5606°N, 98.9545°W)
Time: 12:12:42
(UTC+00:00)

Okean-O - Pass Details

Date: 20 January 2020
Orbit: 639 x 640 km, 98.2° (Epoch: 16 February)

Event Time Altitude Azimuth Distance (km) Brightness Sun altitude
Rises 00:45:57 0° 173° (S) 2,929 6.2 -12.4°
Reaches altitude 10° 00:48:10 10° 177° (S) 2,024 5.4 -12.8°
Maximum altitude 00:52:32 64° 259° (WSW) 711 3.1 -13.6°
Drops below altitude 10° 00:56:57 10° 341° (NNW) 2,039 5.3 -14.4°
Sets 00:59:11 0° 344° (NNW) 2,952 6.1 -14.9°
